LEMUR-2-VU (43558 NORAD) Tracking and Keplerian Element Data

This shows tracking and keplerian element data for the satellite.

Feedback or suggestion? Click here.




ElementValue
Catalog43558
NameLEMUR-2-VU
Epoch Orbit1844
Epoch Day318.20553586
Epoch Year2018
RAAN14.3894
Inclination51.6434
Eccentricity0.0008216
Argument of Perigee21.6435
Mean Anonmoly338.489
Mean Motion15.28305373
Decay Rate1.589E-05
L11 43558U 18046E 18318.20553586 .00001589 00000-0 69521-4 0 9999
L22 43558 51.6434 14.3894 0008216 21.6435 338.4890 15.28305373 18446

Live tracking and technical data element details for LEMUR-2-VU (NORAD 43558). LEMUR-2-VU can be tracked NOW for your location showing map with azimuth and elevation plus other details from your city location.

Track the satellite on the map from your city or location and see movement details for azimuth, elevation, latitude, longitude, range, height, and movement on the map or in text.







IsCatalogInMostPopularTable: catalog: 43558, numindb: 42
Update: records affected: 1



GetName: 43558 LEMUR-2-VU

Hit Count: updated at: Fri, 16 Nov 2018 03:31:50 GMT